Regional Weather Roundup
Issued by NWS Newport/Morehead, NC

Current Version | Previous Version | Text Only | Print | Product List | Glossary Off
Versions: 1 2 3 4 5 6 7 8 9 10 11 12 13 14 15 16 17 18 19 20 21 22 23 24 25 26 27 28 29 30 31 32 33 34 35 36 37 38 39 40 41 42 43 44 45 46 47 48 49 50

000
ASUS42 KMHX 270124
RWRMHX
WEATHER ROUNDUP FOR EASTERN NORTH CAROLINA
NATIONAL WEATHER SERVICE NEWPORT/MOREHEAD CITY NC
900 PM EDT SUN APR 26 2015

NOTE: "FAIR" INDICATES FEW OR NO CLOUDS BELOW 12,000 FEET
WITH NO SIGNIFICANT WEATHER AND/OR OBSTRUCTIONS TO VISIBILITY

NCZ015>017-031-032-045>047-102-103-270200-
NORTH COAST

CITY           SKY/WX    TMP DP  RH WIND       PRES   REMARKS
EDENTON        CLOUDY    50  47  90 CALM      29.74R
ELIZABETH CITY CLOUDY    53  42  66 NE7       29.74R
KITTY HAWK     MOCLDY    51  34  50 N5        29.72R
MANTEO         PTCLDY    52  34  50 N12G20    29.72S

$$

NCZ045>047-081-094-103-104-270200-
CENTRAL COAST

CITY           SKY/WX    TMP DP  RH WIND       PRES   REMARKS
FRISCO         MOCLDY    50  34  54 N10G20    29.70S
SWANQUARTER      N/A     52 N/A N/A NW3       29.71R

$$

NCZ095-097-098-100-101-270200-
SOUTHERN COAST

CITY           SKY/WX    TMP DP  RH WIND       PRES   REMARKS
BEAUFORT       CLOUDY    53  48  83 N7        29.73R
CEDAR ISLAND     N/A     55 N/A N/A N14G21    29.77R
JACKSONVILLE   CLOUDY    53  47  79 N8        29.74R
PINEY ISLAND   CLOUDY   N/A N/A N/A N12       29.72R
WILMINGTON     CLOUDY    54  48  80 N10       29.73R


$$

NCZ011>013-027>030-043-044-078>080-089-090>093-098-270200-
COASTAL PLAIN

CITY           SKY/WX    TMP DP  RH WIND       PRES   REMARKS
AHOSKIE        CLOUDY    48  47  96 CALM      29.75R
CLINTON        MOCLDY    53  49  87 CALM      29.77R
ELIZABETHTOWN  CLOUDY    53  48  84 CALM      29.76R
GOLDSBORO      CLOUDY    51  47  85 CALM      29.73R
GREENVILLE     MOCLDY    50  48  93 CALM      29.78R
HAVELOCK       CLOUDY    54  47  77 N8G20     29.74R
KENANSVILLE    MOCLDY    51  47  86 N3        29.75S
KINSTON        PTCLDY    50  46  87 CALM      29.76R
NEW BERN       MOCLDY    53  47  79 N6        29.75R
RICHLANDS      CLOUDY    52  45  76 N8        29.74S
ROCKY MOUNT    MOCLDY    52  46  80 CALM      29.75R
WASHINGTON     CLOUDY    50  47  90 CALM      29.75R
WHITEVILLE     CLOUDY    54  49  82 N5        29.75R

$$

AMZ130-135-150-152-154-156-158-170-250-252-270-ANZ085-086-088-633-658-670-270200-
MARINE OBSERVATIONS

STATION/POSITION TIME  TEMP    WIND        PRES    WAVE   SWELL
                       AIR SEA DIR/SP/G            HT/PER HT/PER
                 (UTC) (F)     (DEG/KT/KT) (MB)    (FT/S) (FT/S)
CHESAPEAKE LIGHT 0100   51      60/  7/  8 1007.3
64 E VA BEACH    0050   56 56   30/ 16/ 19 1005.2    5/ 6   2/11
DUCK             0100   53 55   10/ 10/ 12 1005.6
2 E DUCK         0011      54                N/A     4/ 6
10 NE DUCK       NOT AVBL
OREGON INLET     0100   51 55  360/ 12/ 15 1005.8
HATTERAS CG      0100   55 62  360/ 19/ 22 1005.3
DIAMOND BUOY     0050   56 78  360/ 17/ 21 1005.2    7/ 9   5/ 9
CAPE LOOKOUT     0100   54      10/ 13/ 15 1006.3
BEAUFORT LAB     0100   54 62   10/ 10/ 12 1005.7
27 SE WRIGHTSVLE 0100   55 72   30/ 14/ 16   N/A
5 SE WRIGHTSVLE  0008   57 65   20/ 17/ 21 1005.9
225 S CAPE HAT   0050   70 71  340/ 14/ 16 1004.4    8/ 8   7/ 8
41 SE CHARLESTON 0050   74 72  280/ 14/ 19 1002.8    4/ 6   2/ 7

$$



USA.gov is the U.S. government's official web portal to all federal, state and local government web resources and services.